www.pogodaiklimat.ru

Погода и климат >> Архив погоды >> Италия >> Милан


ПОГОДА в Милане

АРХИВ ПОГОДЫ в Милане

Время (UTC), дата Ветер
(напр.,м/с)
 
Видим.   Явления Облачность Т
(С)
Тd
(С)
f
(%)
Тe
(С)
Тes
(С)
Комфортность P
(гПа)
Po
(гПа)
Тmin
(С)
Tmax
(С)
R
(мм)
R24
(мм)
S
(см)
15 14.07 ЮВ 5 10 км ясно +29.4 +8.0 26 +29 +34 жарко 1009.7 996.8
18 14.07 Ю 3 10 км 8/8 1500 м
[Cu med, cong]
+27.2 +13.3 42 +29 +29 жарко 1008.7 995.9 +29.8
21 14.07 ЮЗ 2 10 км 9/9 600 м
[Cu Sc Ac cast Cs]
+23.0 +15.4 62 +27 +27 душно 1009.9 997.1
00 15.07 СЗ 3 н/о н/о +20.7 +16.4 76 +24 +24 комфорт 1010.7 997.9
06 15.07 СВ 5 н/о н/о +17.1 +14.1 83 +16 +16 1010.4 997.6 +16.3 35
09 15.07 СВ 3 н/о н/о +18.9 +14.7 77 +20 +20 1011.8 998.9
12 15.07 В 2 н/о н/о +21.9 +14.0 61 +25 +25 комфорт 1012.4 999.6 0.2
15 15.07 СВ 2 10 км 9/9 1200 м
[Cu Sc]
+21.6 +14.6 64 +25 +26 комфорт 1012.7 999.9
18 15.07 Ю 2 н/о н/о +22.3 +14.9 63 +26 +26 жарко 1012.9 1000.1 +23.9 0.2
21 15.07 С 2 10 км в посл. час крупа 9/9 900 м
[Cu Sc]
+20.6 +16.2 76 +24 +24 комфорт 1014.4 1001.5
00 16.07 штиль 0 10 км 5/0 2000 м
[Ac cuf]
+16.8 +15.9 94 +17 +17 1014.8 1001.9 0.4
03 16.07 н/о н/о +15.5 +15.1 97 1014.5 1001.6
06 16.07 нст 1 8000 м дымка ясно +19.4 +17.0 86 +23 +27 комфорт 1014.9 1002.0 +15.2 0.4
09 16.07 10 км ясно +23.7 +15.4 60 1015.4 1002.5
12 16.07 Ю 3 10 км 4/4 900 м
[Cu hum]
+26.7 +13.2 43 +28 +37 жарко 1014.7 1001.8
15 16.07 ЮЗ 2 10 км ясно +28.8 +11.7 35 +30 +39 жарко 1013.7 1000.8
18 16.07 Ю 2 10 км ясно +27.7 +13.2 41 +29 +30 жарко 1013.0 1000.1 +29.1
21 16.07 штиль 0 10 км ясно +20.8 +15.2 70 +24 +24 комфорт 1013.6 1000.8
00 17.07 штиль 0 10 км ясно +19.5 +15.9 80 +21 +21 комфорт 1014.2 1001.3
03 17.07 10 км ясно +17.2 +15.6 90 1013.9 1001.0
06 17.07 СВ 1 10 км ясно +21.8 +16.2 70 +26 +29 душно 1014.0 1001.1 +16.9
09 17.07 Ю 2 10 км ясно +26.1 +15.6 52 +29 +44 жарко 1013.7 1000.9
12 17.07 ЮЗ 3 10 км ясно +29.3 +14.7 41 +32 +48 душно 1012.6 999.8
15 17.07 З 2 20 км ясно +29.5 +14.3 39 +31 +40 жарко 1011.3 998.4
18 17.07 ЮЗ 2 20 км ясно +28.8 +14.7 42 +31 +32 жарко 1010.1 997.2 +30.3
21 17.07 З 2 20 км ясно +23.6 +12.9 51 +26 +26 жарко 1011.1 998.3
00 18.07 СЗ 1 10 км 3/0 1500 м
[Ac cuf]
+22.0 +12.8 56 +25 +25 комфорт 1011.2 998.3
03 18.07 10 км ясно +18.1 +14.0 77 1010.9 998.0
06 18.07 В 2 10 км 4/4 1500 м
[Sc]
+22.0 +13.9 60 +25 +27 комфорт 1011.9 999.1 +17.6
09 18.07 ЮВ 4 н/о н/о +25.3 +16.7 59 +29 +29 душно 1013.0 1000.1
12 18.07 ЮВ 4 10 км 4/4 1200 м
[Sc diur, vesp]
+27.6 +17.1 53 +32 +40 очень
душно
1012.7 999.8
15 18.07 ЮВ 3 н/о н/о +28.7 +15.0 43 +31 +31 жарко 1012.0 999.1
18 18.07 СВ 3 10 км 1/0 1500 м
[Ac trans]
+24.6 +18.1 67 +29 +29 душно 1012.3 999.5 +29.7
21 18.07 СВ 2 10 км ясно +23.5 +18.1 72 +28 +28 душно 1013.8 1001.0
00 19.07 В 2 10 км ясно +21.6 +16.6 73 +25 +25 комфорт 1014.7 1001.8
03 19.07 В 2 н/о н/о +20.4 +15.6 74 +24 +24 комфорт 1015.5 1002.6
06 19.07 10 км ясно +22.7 +16.4 68 1016.2 1003.3 +19.2
09 19.07 10 км ясно +25.8 +18.1 62 1016.9 1004.0
12 19.07 н/о н/о +28.9 +16.4 47 1016.2 1003.3
15 19.07 Ю 2 20 км ясно +30.1 +16.4 44 +33 +42 душно 1015.0 1002.2
18 19.07 ЮЗ 1 20 км ясно +29.5 +15.7 43 +32 +33 душно 1014.7 1001.8 +30.8
21 19.07 20 км ясно +24.2 +17.8 67 1016.0 1003.1
00 20.07 н/о н/о +23.5 +18.5 74 1016.8 1003.9
03 20.07 В 1 н/о н/о +22.3 +17.8 76 +27 +27 душно 1016.9 1004.0
06 20.07 В 2 20 км ясно +23.4 +18.0 72 +29 +32 душно 1017.7 1004.8 +20.1
09 20.07 В 1 н/о н/о +27.2 +19.2 62 +33 +33 очень
душно
1018.4 1005.5
12 20.07 нст 2 20 км 5/5 1200 м
[Cb calv Ac trans]
+29.6 +19.2 54 +35 +45 очень
душно
1018.2 1005.3
15 20.07 З 2 н/о н/о +31.1 +17.1 43 +35 +35 очень
душно
1017.3 1004.4
18 20.07 ЮЗ 2 10 км н/о +29.9 +17.0 46 +34 +34 очень
душно
1017.1 1004.2 +31.8
21 20.07 З 2 10 км н/о +25.6 +15.3 53 +29 +29 душно 1018.4 1005.5
00 21.07 З 2 20 км ясно +24.2 +13.7 52 +26 +26 жарко 1019.0 1006.1
03 21.07 СЗ 2 н/о н/о +22.7 +15.3 63 +27 +27 душно 1019.2 1006.3
06 21.07 Ю 2 10 км н/о +24.1 +16.5 63 +28 +28 душно 1019.6 1006.7 +20.6
09 21.07 ЮЗ 3 н/о н/о +27.8 +16.8 51 +31 +31 душно 1020.1 1007.1
12 21.07 З 2 н/о н/о +29.9 +21.0 59 +37 +37 очень
душно
1019.2 1006.3

 

Местоположение метеостанции Милан (Италия): широта 45.43 долгота 9.28 высота над уровнем моря 103 м.

В архиве по умолчанию представлена погода в Милане за последнюю неделю. Архивные данные за месяц целиком и за предыдущие месяцы, начиная с января 2011 года, Вы можете получить, выбрав интересующий диапазон дат из раскрывающегося списка и нажав кнопку "Ввод!".


*Определитесь, кто Вы:
робот инопланетянин человек

Внимание! Время в таблицах - всемирное. Для получения местного времени необходимо прибавить поправку, которая равна 1 ч.

Смотрите также архив погоды в соседних городах и на ближайших метеорологических станциях:

Погода в Бергамо (Италия) (42 км)
Погода в Аэропорту Мальпенса (Италия) (48 км)
Погода в Новара (Италия) (49 км)
Погода в Стабио (Швейцария) (54 км)
Погода на Монте-Дженеросо (Швейцария) (59 км)
Погода в Пьяченце (Италия) (67 км)
Погода в Лугано (Швейцария) (68 км)
Погода в Казале-Монферрато (Италия) (73 км)
Погода в Брешиа (Италия) (78 км)
Погода в Локарно-Магадино (Швейцария) (88 км)

Пояснения к столбцам:

Ветер - указаны скорость ветра в м/с - средняя за 10 мин, порывы в срок и между сроками (в фигурных скобках) и направление, откуда дует ветер: С - северный, СВ - северо-восточный, В - восточный, ЮВ - юго-восточный, Ю - южный, ЮЗ - юго-западный, З - западный, СЗ - северо-западный.
Видимость - горизонтальная дальность видимости в метрах или километрах. При видимости от 1 до 10 км при отсутствии осадков обычно наблюдается дымка, при ухудшении видимости до 1 км и менее - туман. В сухую погоду видимость может ухудшаться дымом, пылью или мглою.
Явления - указаны атмосферные явления, наблюдавшиеся в срок или в последний час перед сроком; фигурными скобками обозначены явления, наблюдавшиеся между сроками (за 1-3 часа до срока); квадратными скобками обозначены град или гололедные отложения с указанием их диаметра в мм.
Облачность - указаны через наклонную черту общая и нижняя облачность в баллах и высота нижней границы облаков в метрах; квадратными скобками обозначены формы облаков: Ci - перистые, Cs - перисто-слоистые, Cc - перисто-кучевые, Ac - высококучевые, As - высокослоистые, Sc - слоисто-кучевые, Ns - слоисто-дождевые, Cu - кучевые, Cb - кучево-дождевые. Подробнее классификацию облаков см. в Атласе облаков (PDF).
T - Температура воздуха - температура, измеренная на высоте 2 м над землей.
Td - Температура точки росы - температура, при понижении до которой содержащийся в воздухе водяной пар достигнет насыщения.
f - Относительная влажность воздуха - влажноcть воздуха, измеренная на высоте 2 м над землей.
Te - Эффективная температура - температура, которую ощущает одетый по сезону человек в тени. Характеристика душности погоды. При расчете учитывается влияние влажности воздуха и скорости ветра на теплоощущения человека.
Tes - Эффективная температура на солнце - температура, которую ощущает человек, с поправкой на солнечный нагрев. Характеристика знойности погоды. Зависит от высоты солнца над горизонтом, облачности и скорости ветра. Ночью, в пасмурную погоду, а также при ветре 12 м/с и более поправка равна нулю.
P - Атмосферное давление - приведенное к уровню моря атмосферное давление.
Po - Атмосферное давление - измеренное на уровне метеостанции атмосферное давление.
Tmin - Минимальная температура - минимум температуры воздуха на высоте 2 м над землей.
Tmax - Максимальная температура - максимум температуры воздуха на высоте 2 м над землей.
R - Количество осадков - Количество выпавших осадков за период времени, мм. При наведении курсора мыши на число - период времени, за который выпало указанное количество осадков.
R24 - Количество осадков - Количество выпавших осадков за 24 часа, мм.
S - Снежный покров - Высота снежного покрова, см. При наведении курсора мыши на число - состояние снежного покрова и степень покрытия местности в баллах.